Location: Beetenbrück
(52.8113°N, 9.5946°E)
Time: 17:10:58
(UTC+00:00)

SeaSat 1 - Pass Details

Date: 14 April 2026
Orbit: 736 x 740 km, 108.0° (Epoch: 9 May)

Event Time Altitude Azimuth Distance (km) Brightness Sun altitude
Exits shadow 19:43:01 - 85° (E) 2,302 4.5 -12.2°
Reaches altitude 10° 19:43:10 10° 84° (E) 2,253 4.5 -12.2°
Maximum altitude 19:46:50 22° 35° (NE) 1,600 4.2 -12.7°
Drops below altitude 10° 19:50:31 10° 347° (NNW) 2,262 5.7 -13.1°
Sets 19:53:13 0° 332° (NNW) 3,189 7.0 -13.4°
